owner,sensor,date,latitude,longitude,vertical_datum,wind_speed,wind_to_direction,wind_speed_of_gust,qcFlag 
LOOP,urn:ioos:station:wmo:lopl1:1,2014-09-01T00:01:00Z,28.8850,-90.0250,10.0,7.9,121.0,8.8,'11111222,11111222,11111222' 
LOOP,urn:ioos:station:wmo:lopl1:1,2014-09-01T00:16:00Z,28.8850,-90.0250,10.0,7.3,117.0,9.0,'11111222,11111222,11111222' 
LOOP,urn:ioos:station:wmo:lopl1:1,2014-09-01T00:31:00Z,28.8850,-90.0250,10.0,8.1,140.0,10.2,'11111222,11111222,11111222' 
LOOP,urn:ioos:station:wmo:lopl1:1,2014-09-01T00:46:00Z,28.8850,-90.0250,10.0,9.4,128.0,10.3,'11111222,11111222,11111222' 
LOOP,urn:ioos:station:wmo:lopl1:1,2014-09-01T01:01:00Z,28.8850,-90.0250,10.0,8.5,125.0,9.3,'11111222,11111222,11111222' 
LOOP,urn:ioos:station:wmo:lopl1:1,2014-09-01T01:16:00Z,28.8850,-90.0250,10.0,8.7,127.0,9.7,'11111222,11111222,11111222' 
LOOP,urn:ioos:station:wmo:lopl1:1,2014-09-01T01:31:00Z,28.8850,-90.0250,10.0,9.5,129.0,10.3,'11111222,11111222,11111222' 
LOOP,urn:ioos:station:wmo:lopl1:1,2014-09-01T01:46:00Z,28.8850,-90.0250,10.0,9.4,130.0,10.7,'11111222,11111222,11111222' 
LOOP,urn:ioos:station:wmo:lopl1:1,2014-09-01T02:01:00Z,28.8850,-90.0250,10.0,9.7,132.0,10.4,'11111222,11111222,11111222' 
LOOP,urn:ioos:station:wmo:lopl1:1,2014-09-01T02:16:00Z,28.8850,-90.0250,10.0,9.1,128.0,10.2,'11111222,11111222,11111222' 
LOOP,urn:ioos:station:wmo:lopl1:1,2014-09-01T02:31:00Z,28.8850,-90.0250,10.0,8.7,123.0,9.7,'11111222,11111222,11111222' 
LOOP,urn:ioos:station:wmo:lopl1:1,2014-09-01T02:46:00Z,28.8850,-90.0250,10.0,9.8,135.0,10.8,'11111222,11111222,11111222' 
LOOP,urn:ioos:station:wmo:lopl1:1,2014-09-01T03:01:00Z,28.8850,-90.0250,10.0,9.8,133.0,10.9,'11111222,11111222,11111222' 
LOOP,urn:ioos:station:wmo:lopl1:1,2014-09-01T03:16:00Z,28.8850,-90.0250,10.0,9.9,137.0,11.2,'11111222,11111222,11111222' 
LOOP,urn:ioos:station:wmo:lopl1:1,2014-09-01T03:31:00Z,28.8850,-90.0250,10.0,10.0,135.0,11.1,'11111222,11111222,11111222' 
LOOP,urn:ioos:station:wmo:lopl1:1,2014-09-01T03:46:00Z,28.8850,-90.0250,10.0,9.0,132.0,10.4,'11111222,11111222,11111222' 
LOOP,urn:ioos:station:wmo:lopl1:1,2014-09-01T04:01:00Z,28.8850,-90.0250,10.0,9.5,133.0,10.9,'11111222,11111222,11111222' 
LOOP,urn:ioos:station:wmo:lopl1:1,2014-09-01T04:16:00Z,28.8850,-90.0250,10.0,9.4,138.0,10.9,'11111222,11111222,11111222' 
LOOP,urn:ioos:station:wmo:lopl1:1,2014-09-01T04:31:00Z,28.8850,-90.0250,10.0,9.7,137.0,11.2,'11111222,11111222,11111222' 
LOOP,urn:ioos:station:wmo:lopl1:1,2014-09-01T04:46:00Z,28.8850,-90.0250,10.0,9.7,137.0,10.8,'11111222,11111222,11111222' 
LOOP,urn:ioos:station:wmo:lopl1:1,2014-09-01T05:01:00Z,28.8850,-90.0250,10.0,9.9,136.0,10.7,'11111222,11111222,11111222' 
LOOP,urn:ioos:station:wmo:lopl1:1,2014-09-01T05:16:00Z,28.8850,-90.0250,10.0,10.0,137.0,11.2,'11111222,11111222,11111222' 
LOOP,urn:ioos:station:wmo:lopl1:1,2014-09-01T05:31:00Z,28.8850,-90.0250,10.0,10.9,134.0,12.4,'11111222,11111222,11111222' 
LOOP,urn:ioos:station:wmo:lopl1:1,2014-09-01T05:46:00Z,28.8850,-90.0250,10.0,11.1,145.0,12.2,'11111222,11111222,11111222' 
LOOP,urn:ioos:station:wmo:lopl1:1,2014-09-01T06:01:00Z,28.8850,-90.0250,10.0,9.9,144.0,11.2,'11111222,11111222,11111222' 
LOOP,urn:ioos:station:wmo:lopl1:1,2014-09-01T06:16:00Z,28.8850,-90.0250,10.0,10.0,147.0,11.2,'11111222,11111222,11111222' 
LOOP,urn:ioos:station:wmo:lopl1:1,2014-09-01T06:31:00Z,28.8850,-90.0250,10.0,10.7,141.0,12.0,'11111222,11111222,11111222' 
LOOP,urn:ioos:station:wmo:lopl1:1,2014-09-01T06:46:00Z,28.8850,-90.0250,10.0,10.3,137.0,11.5,'11111222,11111222,11111222' 
LOOP,urn:ioos:station:wmo:lopl1:1,2014-09-01T07:06:00Z,28.8850,-90.0250,10.0,9.4,144.0,11.1,'11111222,11111222,11111222' 
LOOP,urn:ioos:station:wmo:lopl1:1,2014-09-01T07:21:00Z,28.8850,-90.0250,10.0,9.7,134.0,11.3,'11111222,11111222,11111222' 
LOOP,urn:ioos:station:wmo:lopl1:1,2014-09-01T07:36:00Z,28.8850,-90.0250,10.0,8.7,134.0,9.7,'11111222,11111222,11111222' 
LOOP,urn:ioos:station:wmo:lopl1:1,2014-09-01T07:51:00Z,28.8850,-90.0250,10.0,9.4,136.0,10.3,'11111222,11111222,11111222' 
LOOP,urn:ioos:station:wmo:lopl1:1,2014-09-01T08:06:00Z,28.8850,-90.0250,10.0,8.3,132.0,9.0,'11111222,11111222,11111222' 
LOOP,urn:ioos:station:wmo:lopl1:1,2014-09-01T08:21:00Z,28.8850,-90.0250,10.0,8.5,129.0,9.4,'11111222,11111222,11111222' 
LOOP,urn:ioos:station:wmo:lopl1:1,2014-09-01T08:36:00Z,28.8850,-90.0250,10.0,9.2,135.0,9.9,'11111222,11111222,11111222' 
LOOP,urn:ioos:station:wmo:lopl1:1,2014-09-01T08:51:00Z,28.8850,-90.0250,10.0,9.3,132.0,10.0,'11111222,11111222,11111222' 
LOOP,urn:ioos:station:wmo:lopl1:1,2014-09-01T09:06:00Z,28.8850,-90.0250,10.0,9.9,131.0,11.0,'11111222,11111222,11111222' 
LOOP,urn:ioos:station:wmo:lopl1:1,2014-09-01T09:21:00Z,28.8850,-90.0250,10.0,9.2,139.0,10.2,'11111222,11111222,11111222' 
LOOP,urn:ioos:station:wmo:lopl1:1,2014-09-01T09:36:00Z,28.8850,-90.0250,10.0,9.2,133.0,10.2,'11111222,11111222,11111222' 
LOOP,urn:ioos:station:wmo:lopl1:1,2014-09-01T09:51:00Z,28.8850,-90.0250,10.0,9.5,145.0,10.3,'11111222,11111222,11111222' 
LOOP,urn:ioos:station:wmo:lopl1:1,2014-09-01T10:06:00Z,28.8850,-90.0250,10.0,9.3,136.0,10.3,'11111222,11111222,11111222' 
LOOP,urn:ioos:station:wmo:lopl1:1,2014-09-01T10:21:00Z,28.8850,-90.0250,10.0,9.1,141.0,10.1,'11111222,11111222,11111222' 
LOOP,urn:ioos:station:wmo:lopl1:1,2014-09-01T10:36:00Z,28.8850,-90.0250,10.0,8.8,141.0,9.7,'11111222,11111222,11111222' 
LOOP,urn:ioos:station:wmo:lopl1:1,2014-09-01T10:51:00Z,28.8850,-90.0250,10.0,8.2,140.0,8.9,'11111222,11111222,11111222' 
LOOP,urn:ioos:station:wmo:lopl1:1,2014-09-01T11:06:00Z,28.8850,-90.0250,10.0,8.6,146.0,9.5,'11111222,11111222,11111222' 
LOOP,urn:ioos:station:wmo:lopl1:1,2014-09-01T11:21:00Z,28.8850,-90.0250,10.0,8.0,135.0,9.2,'11111222,11111222,11111222' 
LOOP,urn:ioos:station:wmo:lopl1:1,2014-09-01T11:36:00Z,28.8850,-90.0250,10.0,8.0,138.0,9.1,'11111222,11111222,11111222' 
LOOP,urn:ioos:station:wmo:lopl1:1,2014-09-01T11:51:00Z,28.8850,-90.0250,10.0,8.1,133.0,9.4,'11111222,11111222,11111222' 
LOOP,urn:ioos:station:wmo:lopl1:1,2014-09-01T12:06:00Z,28.8850,-90.0250,10.0,7.7,138.0,8.6,'11111222,11111222,11111222' 
LOOP,urn:ioos:station:wmo:lopl1:1,2014-09-01T12:21:00Z,28.8850,-90.0250,10.0,7.6,125.0,8.6,'11111222,11111222,11111222' 
LOOP,urn:ioos:station:wmo:lopl1:1,2014-09-01T12:36:00Z,28.8850,-90.0250,10.0,8.4,127.0,10.3,'11111222,11111222,11111222' 
LOOP,urn:ioos:station:wmo:lopl1:1,2014-09-01T12:51:00Z,28.8850,-90.0250,10.0,11.8,139.0,16.6,'11111222,11111222,11111222' 
LOOP,urn:ioos:station:wmo:lopl1:1,2014-09-01T13:06:00Z,28.8850,-90.0250,10.0,7.3,129.0,8.8,'11111222,11111222,11111222' 
LOOP,urn:ioos:station:wmo:lopl1:1,2014-09-01T13:21:00Z,28.8850,-90.0250,10.0,6.6,133.0,8.3,'11111222,11111222,11111222' 
LOOP,urn:ioos:station:wmo:lopl1:1,2014-09-01T13:36:00Z,28.8850,-90.0250,10.0,8.5,154.0,9.6,'11111222,11111222,11111222' 
LOOP,urn:ioos:station:wmo:lopl1:1,2014-09-01T13:51:00Z,28.8850,-90.0250,10.0,6.9,150.0,7.7,'11111222,11111222,11111222' 
LOOP,urn:ioos:station:wmo:lopl1:1,2014-09-01T14:06:00Z,28.8850,-90.0250,10.0,6.3,133.0,7.5,'11111222,11111222,11111222' 
LOOP,urn:ioos:station:wmo:lopl1:1,2014-09-01T14:21:00Z,28.8850,-90.0250,10.0,7.7,124.0,8.6,'11111222,11111222,11111222' 
LOOP,urn:ioos:station:wmo:lopl1:1,2014-09-01T14:36:00Z,28.8850,-90.0250,10.0,6.3,128.0,7.0,'11111222,11111222,11111222' 
LOOP,urn:ioos:station:wmo:lopl1:1,2014-09-01T14:51:00Z,28.8850,-90.0250,10.0,7.3,132.0,8.4,'11111222,11111222,11111222' 
LOOP,urn:ioos:station:wmo:lopl1:1,2014-09-01T15:06:00Z,28.8850,-90.0250,10.0,7.4,137.0,8.2,'11111222,11111222,11111222' 
LOOP,urn:ioos:station:wmo:lopl1:1,2014-09-01T15:21:00Z,28.8850,-90.0250,10.0,6.8,135.0,7.8,'11111222,11111222,11111222' 
LOOP,urn:ioos:station:wmo:lopl1:1,2014-09-01T15:36:00Z,28.8850,-90.0250,10.0,6.4,123.0,8.1,'11111222,11111222,11111222' 
LOOP,urn:ioos:station:wmo:lopl1:1,2014-09-01T15:51:00Z,28.8850,-90.0250,10.0,6.9,120.0,7.4,'11111222,11111222,11111222' 
LOOP,urn:ioos:station:wmo:lopl1:1,2014-09-01T16:11:00Z,28.8850,-90.0250,10.0,6.8,131.0,7.6,'11111222,11111222,11111222' 
LOOP,urn:ioos:station:wmo:lopl1:1,2014-09-01T16:26:00Z,28.8850,-90.0250,10.0,6.5,114.0,7.4,'11111222,11111222,11111222' 
LOOP,urn:ioos:station:wmo:lopl1:1,2014-09-01T16:41:00Z,28.8850,-90.0250,10.0,10.2,127.0,13.6,'11111222,11111222,11111222' 
LOOP,urn:ioos:station:wmo:lopl1:1,2014-09-01T16:56:00Z,28.8850,-90.0250,10.0,7.8,130.0,8.9,'11111222,11111222,11111222' 
LOOP,urn:ioos:station:wmo:lopl1:1,2014-09-01T17:11:00Z,28.8850,-90.0250,10.0,6.2,155.0,7.1,'11111222,11111222,11111222' 
LOOP,urn:ioos:station:wmo:lopl1:1,2014-09-01T17:26:00Z,28.8850,-90.0250,10.0,4.6,132.0,5.7,'11111222,11111222,11111222' 
LOOP,urn:ioos:station:wmo:lopl1:1,2014-09-01T17:41:00Z,28.8850,-90.0250,10.0,8.0,141.0,9.1,'11111222,11111222,11111222' 
LOOP,urn:ioos:station:wmo:lopl1:1,2014-09-01T17:56:00Z,28.8850,-90.0250,10.0,6.1,156.0,6.9,'11111222,11111222,11111222' 
LOOP,urn:ioos:station:wmo:lopl1:1,2014-09-01T18:11:00Z,28.8850,-90.0250,10.0,6.6,161.0,7.3,'11111222,11111222,11111222' 
LOOP,urn:ioos:station:wmo:lopl1:1,2014-09-01T18:26:00Z,28.8850,-90.0250,10.0,5.5,162.0,7.0,'11111222,11111222,11111222' 
LOOP,urn:ioos:station:wmo:lopl1:1,2014-09-01T18:41:00Z,28.8850,-90.0250,10.0,6.7,158.0,8.3,'11111222,11111222,11111222' 
LOOP,urn:ioos:station:wmo:lopl1:1,2014-09-01T18:56:00Z,28.8850,-90.0250,10.0,6.7,159.0,7.8,'11111222,11111222,11111222' 
LOOP,urn:ioos:station:wmo:lopl1:1,2014-09-01T19:11:00Z,28.8850,-90.0250,10.0,7.0,170.0,8.0,'11111222,11111222,11111222' 
LOOP,urn:ioos:station:wmo:lopl1:1,2014-09-01T19:26:00Z,28.8850,-90.0250,10.0,6.5,160.0,7.3,'11111222,11111222,11111222' 
LOOP,urn:ioos:station:wmo:lopl1:1,2014-09-01T19:41:00Z,28.8850,-90.0250,10.0,6.3,160.0,7.0,'11111222,11111222,11111222' 
LOOP,urn:ioos:station:wmo:lopl1:1,2014-09-01T19:56:00Z,28.8850,-90.0250,10.0,6.7,168.0,7.7,'11111222,11111222,11111222' 
LOOP,urn:ioos:station:wmo:lopl1:1,2014-09-01T20:11:00Z,28.8850,-90.0250,10.0,6.7,170.0,7.7,'11111222,11111222,11111222' 
LOOP,urn:ioos:station:wmo:lopl1:1,2014-09-01T20:26:00Z,28.8850,-90.0250,10.0,6.0,157.0,7.1,'11111222,11111222,11111222' 
LOOP,urn:ioos:station:wmo:lopl1:1,2014-09-01T20:41:00Z,28.8850,-90.0250,10.0,7.2,165.0,8.1,'11111222,11111222,11111222' 
LOOP,urn:ioos:station:wmo:lopl1:1,2014-09-01T20:56:00Z,28.8850,-90.0250,10.0,7.3,162.0,8.6,'11111222,11111222,11111222' 
LOOP,urn:ioos:station:wmo:lopl1:1,2014-09-01T21:11:00Z,28.8850,-90.0250,10.0,6.8,162.0,7.9,'11111222,11111222,11111222' 
LOOP,urn:ioos:station:wmo:lopl1:1,2014-09-01T21:26:00Z,28.8850,-90.0250,10.0,7.4,163.0,8.2,'11111222,11111222,11111222' 
LOOP,urn:ioos:station:wmo:lopl1:1,2014-09-01T21:41:00Z,28.8850,-90.0250,10.0,7.0,165.0,8.0,'11111222,11111222,11111222' 
LOOP,urn:ioos:station:wmo:lopl1:1,2014-09-01T21:56:00Z,28.8850,-90.0250,10.0,6.7,158.0,7.6,'11111222,11111222,11111222' 
LOOP,urn:ioos:station:wmo:lopl1:1,2014-09-01T22:11:00Z,28.8850,-90.0250,10.0,7.1,171.0,8.3,'11111222,11111222,11111222' 
LOOP,urn:ioos:station:wmo:lopl1:1,2014-09-01T22:26:00Z,28.8850,-90.0250,10.0,6.9,168.0,8.1,'11111222,11111222,11111222' 
LOOP,urn:ioos:station:wmo:lopl1:1,2014-09-01T22:41:00Z,28.8850,-90.0250,10.0,7.4,158.0,9.1,'11111222,11111222,11111222' 
LOOP,urn:ioos:station:wmo:lopl1:1,2014-09-01T22:56:00Z,28.8850,-90.0250,10.0,7.8,157.0,8.5,'11111222,11111222,11111222' 
LOOP,urn:ioos:station:wmo:lopl1:1,2014-09-01T23:11:00Z,28.8850,-90.0250,10.0,6.9,166.0,8.0,'11111222,11111222,11111222' 
LOOP,urn:ioos:station:wmo:lopl1:1,2014-09-01T23:26:00Z,28.8850,-90.0250,10.0,7.3,165.0,8.2,'11111222,11111222,11111222' 
LOOP,urn:ioos:station:wmo:lopl1:1,2014-09-01T23:41:00Z,28.8850,-90.0250,10.0,6.4,158.0,7.4,'11111222,11111222,11111222' 
LOOP,urn:ioos:station:wmo:lopl1:1,2014-09-01T23:56:00Z,28.8850,-90.0250,10.0,7.1,161.0,7.7,'11111222,11111222,11111222' 
LOOP,urn:ioos:station:wmo:lopl1:1,2014-09-02T00:11:00Z,28.8850,-90.0250,10.0,6.6,166.0,7.4,'11111222,11111222,11111222' 
LOOP,urn:ioos:station:wmo:lopl1:1,2014-09-02T00:26:00Z,28.8850,-90.0250,10.0,7.2,163.0,8.3,'11111222,11111222,11111222' 
LOOP,urn:ioos:station:wmo:lopl1:1,2014-09-02T00:41:00Z,28.8850,-90.0250,10.0,7.5,175.0,8.3,'11111222,11111222,11111222' 
LOOP,urn:ioos:station:wmo:lopl1:1,2014-09-02T01:01:00Z,28.8850,-90.0250,10.0,7.5,178.0,9.0,'11111222,11111222,11111222' 
LOOP,urn:ioos:station:wmo:lopl1:1,2014-09-02T01:16:00Z,28.8850,-90.0250,10.0,6.5,163.0,7.9,'11111222,11111222,11111222' 
LOOP,urn:ioos:station:wmo:lopl1:1,2014-09-02T01:31:00Z,28.8850,-90.0250,10.0,6.1,162.0,7.4,'11111222,11111222,11111222' 
LOOP,urn:ioos:station:wmo:lopl1:1,2014-09-02T01:46:00Z,28.8850,-90.0250,10.0,5.7,164.0,7.0,'11111222,11111222,11111222' 
LOOP,urn:ioos:station:wmo:lopl1:1,2014-09-02T02:01:00Z,28.8850,-90.0250,10.0,5.5,170.0,6.4,'11111222,11111222,11111222' 
LOOP,urn:ioos:station:wmo:lopl1:1,2014-09-02T02:16:00Z,28.8850,-90.0250,10.0,5.2,169.0,6.3,'11111222,11111222,11111222' 
LOOP,urn:ioos:station:wmo:lopl1:1,2014-09-02T02:31:00Z,28.8850,-90.0250,10.0,5.0,181.0,5.7,'11111222,11111222,11111222' 
LOOP,urn:ioos:station:wmo:lopl1:1,2014-09-02T02:46:00Z,28.8850,-90.0250,10.0,4.7,184.0,5.3,'11111222,11111222,11111222' 
LOOP,urn:ioos:station:wmo:lopl1:1,2014-09-02T03:01:00Z,28.8850,-90.0250,10.0,4.9,167.0,5.8,'11111222,11111222,11111222' 
LOOP,urn:ioos:station:wmo:lopl1:1,2014-09-02T03:16:00Z,28.8850,-90.0250,10.0,4.8,169.0,5.6,'11111222,11111222,11111222' 
LOOP,urn:ioos:station:wmo:lopl1:1,2014-09-02T03:31:00Z,28.8850,-90.0250,10.0,4.8,176.0,5.9,'11111222,11111222,11111222' 
LOOP,urn:ioos:station:wmo:lopl1:1,2014-09-02T03:46:00Z,28.8850,-90.0250,10.0,4.5,180.0,5.1,'11111222,11111222,11111222' 
LOOP,urn:ioos:station:wmo:lopl1:1,2014-09-02T04:01:00Z,28.8850,-90.0250,10.0,4.1,174.0,4.5,'11111222,11111222,11111222' 
LOOP,urn:ioos:station:wmo:lopl1:1,2014-09-02T04:16:00Z,28.8850,-90.0250,10.0,3.6,175.0,4.2,'11111222,11111222,11111222' 
LOOP,urn:ioos:station:wmo:lopl1:1,2014-09-02T04:31:00Z,28.8850,-90.0250,10.0,4.1,168.0,4.9,'11111222,11111222,11111222' 
LOOP,urn:ioos:station:wmo:lopl1:1,2014-09-02T04:46:00Z,28.8850,-90.0250,10.0,4.7,173.0,5.4,'11111222,11111222,11111222' 
LOOP,urn:ioos:station:wmo:lopl1:1,2014-09-02T05:01:00Z,28.8850,-90.0250,10.0,4.9,169.0,5.5,'11111222,11111222,11111222' 
LOOP,urn:ioos:station:wmo:lopl1:1,2014-09-02T05:16:00Z,28.8850,-90.0250,10.0,5.5,165.0,6.6,'11111222,11111222,11111222' 
LOOP,urn:ioos:station:wmo:lopl1:1,2014-09-02T05:31:00Z,28.8850,-90.0250,10.0,6.0,171.0,6.6,'11111222,11111222,11111222' 
LOOP,urn:ioos:station:wmo:lopl1:1,2014-09-02T05:46:00Z,28.8850,-90.0250,10.0,6.2,167.0,7.0,'11111222,11111222,11111222' 
LOOP,urn:ioos:station:wmo:lopl1:1,2014-09-02T06:01:00Z,28.8850,-90.0250,10.0,7.0,174.0,7.7,'11111222,11111222,11111222' 
LOOP,urn:ioos:station:wmo:lopl1:1,2014-09-02T06:16:00Z,28.8850,-90.0250,10.0,7.2,174.0,8.5,'11111222,11111222,11111222' 
LOOP,urn:ioos:station:wmo:lopl1:1,2014-09-02T06:31:00Z,28.8850,-90.0250,10.0,7.5,180.0,8.4,'11111222,11111222,11111222' 
LOOP,urn:ioos:station:wmo:lopl1:1,2014-09-02T06:46:00Z,28.8850,-90.0250,10.0,7.3,180.0,8.1,'11111222,11111222,11111222' 
LOOP,urn:ioos:station:wmo:lopl1:1,2014-09-02T07:01:00Z,28.8850,-90.0250,10.0,6.8,169.0,8.0,'11111222,11111222,11111222' 
LOOP,urn:ioos:station:wmo:lopl1:1,2014-09-02T07:16:00Z,28.8850,-90.0250,10.0,7.4,180.0,8.1,'11111222,11111222,11111222' 
LOOP,urn:ioos:station:wmo:lopl1:1,2014-09-02T07:31:00Z,28.8850,-90.0250,10.0,6.9,169.0,7.8,'11111222,11111222,11111222' 
LOOP,urn:ioos:station:wmo:lopl1:1,2014-09-02T07:46:00Z,28.8850,-90.0250,10.0,6.5,176.0,7.3,'11111222,11111222,11111222' 
LOOP,urn:ioos:station:wmo:lopl1:1,2014-09-02T08:01:00Z,28.8850,-90.0250,10.0,6.2,169.0,7.0,'11111222,11111222,11111222' 
LOOP,urn:ioos:station:wmo:lopl1:1,2014-09-02T08:16:00Z,28.8850,-90.0250,10.0,5.8,172.0,6.7,'11111222,11111222,11111222' 
LOOP,urn:ioos:station:wmo:lopl1:1,2014-09-02T08:31:00Z,28.8850,-90.0250,10.0,5.3,179.0,6.0,'11111222,11111222,11111222' 
LOOP,urn:ioos:station:wmo:lopl1:1,2014-09-02T08:46:00Z,28.8850,-90.0250,10.0,5.3,178.0,6.0,'11111222,11111222,11111222' 
LOOP,urn:ioos:station:wmo:lopl1:1,2014-09-02T09:01:00Z,28.8850,-90.0250,10.0,5.3,177.0,6.2,'11111222,11111222,11111222' 
LOOP,urn:ioos:station:wmo:lopl1:1,2014-09-02T09:16:00Z,28.8850,-90.0250,10.0,5.1,172.0,5.7,'11111222,11111222,11111222' 
LOOP,urn:ioos:station:wmo:lopl1:1,2014-09-02T09:31:00Z,28.8850,-90.0250,10.0,5.2,178.0,6.1,'11111222,11111222,11111222' 
LOOP,urn:ioos:station:wmo:lopl1:1,2014-09-02T09:46:00Z,28.8850,-90.0250,10.0,4.7,174.0,5.3,'11111222,11111222,11111222' 
LOOP,urn:ioos:station:wmo:lopl1:1,2014-09-02T10:06:00Z,28.8850,-90.0250,10.0,4.9,165.0,5.5,'11111222,11111222,11111222' 
LOOP,urn:ioos:station:wmo:lopl1:1,2014-09-02T10:21:00Z,28.8850,-90.0250,10.0,5.0,168.0,5.5,'11111222,11111222,11111222' 
LOOP,urn:ioos:station:wmo:lopl1:1,2014-09-02T10:36:00Z,28.8850,-90.0250,10.0,5.0,175.0,6.1,'11111222,11111222,11111222' 
LOOP,urn:ioos:station:wmo:lopl1:1,2014-09-02T10:51:00Z,28.8850,-90.0250,10.0,5.0,160.0,5.7,'11111222,11111222,11111222' 
LOOP,urn:ioos:station:wmo:lopl1:1,2014-09-02T11:06:00Z,28.8850,-90.0250,10.0,5.2,155.0,5.9,'11111222,11111222,11111222' 
LOOP,urn:ioos:station:wmo:lopl1:1,2014-09-02T11:21:00Z,28.8850,-90.0250,10.0,4.9,167.0,5.8,'11111222,11111222,11111222' 
LOOP,urn:ioos:station:wmo:lopl1:1,2014-09-02T11:36:00Z,28.8850,-90.0250,10.0,5.0,150.0,5.7,'11111222,11111222,11111222' 
LOOP,urn:ioos:station:wmo:lopl1:1,2014-09-02T11:51:00Z,28.8850,-90.0250,10.0,4.2,150.0,4.9,'11111222,11111222,11111222' 
LOOP,urn:ioos:station:wmo:lopl1:1,2014-09-02T12:06:00Z,28.8850,-90.0250,10.0,3.8,155.0,4.4,'11111222,11111222,11111222' 
LOOP,urn:ioos:station:wmo:lopl1:1,2014-09-02T12:21:00Z,28.8850,-90.0250,10.0,3.9,167.0,4.5,'11111222,11111222,11111222' 
LOOP,urn:ioos:station:wmo:lopl1:1,2014-09-02T12:36:00Z,28.8850,-90.0250,10.0,4.3,165.0,5.4,'11111222,11111222,11111222' 
LOOP,urn:ioos:station:wmo:lopl1:1,2014-09-02T12:51:00Z,28.8850,-90.0250,10.0,4.4,156.0,5.2,'11111222,11111222,11111222' 
LOOP,urn:ioos:station:wmo:lopl1:1,2014-09-02T13:06:00Z,28.8850,-90.0250,10.0,4.1,162.0,4.9,'11111222,11111222,11111222' 
LOOP,urn:ioos:station:wmo:lopl1:1,2014-09-02T13:21:00Z,28.8850,-90.0250,10.0,4.7,156.0,5.3,'11111222,11111222,11111222' 
LOOP,urn:ioos:station:wmo:lopl1:1,2014-09-02T13:36:00Z,28.8850,-90.0250,10.0,4.7,153.0,5.4,'11111222,11111222,11111222' 
LOOP,urn:ioos:station:wmo:lopl1:1,2014-09-02T13:51:00Z,28.8850,-90.0250,10.0,3.8,153.0,4.3,'11111222,11111222,11111222' 
LOOP,urn:ioos:station:wmo:lopl1:1,2014-09-02T14:06:00Z,28.8850,-90.0250,10.0,3.9,164.0,4.6,'11111222,11111222,11111222' 
LOOP,urn:ioos:station:wmo:lopl1:1,2014-09-02T14:21:00Z,28.8850,-90.0250,10.0,3.8,150.0,4.2,'11111222,11111222,11111222' 
LOOP,urn:ioos:station:wmo:lopl1:1,2014-09-02T14:36:00Z,28.8850,-90.0250,10.0,3.2,134.0,4.0,'11111222,11111222,11111222' 
LOOP,urn:ioos:station:wmo:lopl1:1,2014-09-02T14:51:00Z,28.8850,-90.0250,10.0,3.3,132.0,3.9,'11111222,11111222,11111222' 
LOOP,urn:ioos:station:wmo:lopl1:1,2014-09-02T15:06:00Z,28.8850,-90.0250,10.0,3.6,123.0,4.3,'11111222,11111222,11111222' 
LOOP,urn:ioos:station:wmo:lopl1:1,2014-09-02T15:21:00Z,28.8850,-90.0250,10.0,4.5,129.0,5.3,'11111222,11111222,11111222' 
LOOP,urn:ioos:station:wmo:lopl1:1,2014-09-02T15:36:00Z,28.8850,-90.0250,10.0,4.6,144.0,5.5,'11111222,11111222,11111222' 
LOOP,urn:ioos:station:wmo:lopl1:1,2014-09-02T15:51:00Z,28.8850,-90.0250,10.0,4.1,148.0,4.7,'11111222,11111222,11111222' 
LOOP,urn:ioos:station:wmo:lopl1:1,2014-09-02T16:06:00Z,28.8850,-90.0250,10.0,4.5,148.0,5.1,'11111222,11111222,11111222' 
LOOP,urn:ioos:station:wmo:lopl1:1,2014-09-02T16:21:00Z,28.8850,-90.0250,10.0,4.2,141.0,4.9,'11111222,11111222,11111222' 
LOOP,urn:ioos:station:wmo:lopl1:1,2014-09-02T16:36:00Z,28.8850,-90.0250,10.0,4.1,145.0,4.9,'11111222,11111222,11111222' 
LOOP,urn:ioos:station:wmo:lopl1:1,2014-09-02T16:51:00Z,28.8850,-90.0250,10.0,4.3,139.0,4.9,'11111222,11111222,11111222' 
LOOP,urn:ioos:station:wmo:lopl1:1,2014-09-02T17:06:00Z,28.8850,-90.0250,10.0,3.9,123.0,4.7,'11111222,11111222,11111222' 
LOOP,urn:ioos:station:wmo:lopl1:1,2014-09-02T17:21:00Z,28.8850,-90.0250,10.0,4.2,138.0,4.6,'11111222,11111222,11111222' 
LOOP,urn:ioos:station:wmo:lopl1:1,2014-09-02T17:41:00Z,28.8850,-90.0250,10.0,3.9,146.0,4.7,'11111222,11111222,11111222' 
LOOP,urn:ioos:station:wmo:lopl1:1,2014-09-02T17:56:00Z,28.8850,-90.0250,10.0,4.8,139.0,6.1,'11111222,11111222,11111222' 
LOOP,urn:ioos:station:wmo:lopl1:1,2014-09-02T18:11:00Z,28.8850,-90.0250,10.0,4.2,143.0,5.0,'11111222,11111222,11111222' 
LOOP,urn:ioos:station:wmo:lopl1:1,2014-09-02T18:26:00Z,28.8850,-90.0250,10.0,3.9,146.0,4.4,'11111222,11111222,11111222' 
LOOP,urn:ioos:station:wmo:lopl1:1,2014-09-02T18:41:00Z,28.8850,-90.0250,10.0,4.3,146.0,5.0,'11111222,11111222,11111222' 
LOOP,urn:ioos:station:wmo:lopl1:1,2014-09-02T18:56:00Z,28.8850,-90.0250,10.0,4.7,140.0,5.2,'11111222,11111222,11111222' 
LOOP,urn:ioos:station:wmo:lopl1:1,2014-09-02T19:11:00Z,28.8850,-90.0250,10.0,4.6,128.0,5.4,'11111222,11111222,11111222' 
LOOP,urn:ioos:station:wmo:lopl1:1,2014-09-02T19:26:00Z,28.8850,-90.0250,10.0,3.7,137.0,4.2,'11111222,11111222,11111222' 
LOOP,urn:ioos:station:wmo:lopl1:1,2014-09-02T19:41:00Z,28.8850,-90.0250,10.0,3.5,147.0,4.2,'11111222,11111222,11111222' 
LOOP,urn:ioos:station:wmo:lopl1:1,2014-09-02T19:56:00Z,28.8850,-90.0250,10.0,3.9,137.0,4.8,'11111222,11111222,11111222' 
LOOP,urn:ioos:station:wmo:lopl1:1,2014-09-02T20:11:00Z,28.8850,-90.0250,10.0,3.7,124.0,4.3,'11111222,11111222,11111222' 
LOOP,urn:ioos:station:wmo:lopl1:1,2014-09-02T20:26:00Z,28.8850,-90.0250,10.0,3.2,129.0,3.9,'11111222,11111222,11111222' 
LOOP,urn:ioos:station:wmo:lopl1:1,2014-09-02T20:41:00Z,28.8850,-90.0250,10.0,3.7,115.0,4.4,'11111222,11111222,11111222' 
LOOP,urn:ioos:station:wmo:lopl1:1,2014-09-02T20:56:00Z,28.8850,-90.0250,10.0,3.8,124.0,4.4,'11111222,11111222,11111222' 
LOOP,urn:ioos:station:wmo:lopl1:1,2014-09-02T21:11:00Z,28.8850,-90.0250,10.0,4.0,141.0,4.9,'11111222,11111222,11111222' 
LOOP,urn:ioos:station:wmo:lopl1:1,2014-09-02T21:26:00Z,28.8850,-90.0250,10.0,4.8,121.0,5.3,'11111222,11111222,11111222' 
LOOP,urn:ioos:station:wmo:lopl1:1,2014-09-02T21:41:00Z,28.8850,-90.0250,10.0,4.5,116.0,5.3,'11111222,11111222,11111222' 
LOOP,urn:ioos:station:wmo:lopl1:1,2014-09-02T21:56:00Z,28.8850,-90.0250,10.0,4.7,142.0,5.3,'11111222,11111222,11111222' 
LOOP,urn:ioos:station:wmo:lopl1:1,2014-09-02T22:11:00Z,28.8850,-90.0250,10.0,4.0,129.0,4.7,'11111222,11111222,11111222' 
LOOP,urn:ioos:station:wmo:lopl1:1,2014-09-02T22:26:00Z,28.8850,-90.0250,10.0,4.1,133.0,4.9,'11111222,11111222,11111222' 
LOOP,urn:ioos:station:wmo:lopl1:1,2014-09-02T22:41:00Z,28.8850,-90.0250,10.0,4.0,119.0,4.7,'11111222,11111222,11111222' 
LOOP,urn:ioos:station:wmo:lopl1:1,2014-09-02T23:01:00Z,28.8850,-90.0250,10.0,3.2,129.0,3.9,'11111222,11111222,11111222' 
LOOP,urn:ioos:station:wmo:lopl1:1,2014-09-02T23:16:00Z,28.8850,-90.0250,10.0,3.0,95.0,3.5,'11111222,11111222,11111222' 
LOOP,urn:ioos:station:wmo:lopl1:1,2014-09-02T23:31:00Z,28.8850,-90.0250,10.0,3.0,96.0,3.7,'11111222,11111222,11111222' 
LOOP,urn:ioos:station:wmo:lopl1:1,2014-09-02T23:46:00Z,28.8850,-90.0250,10.0,3.3,105.0,3.9,'11111222,11111222,11111222' 
LOOP,urn:ioos:station:wmo:lopl1:1,2014-09-03T00:01:00Z,28.8850,-90.0250,10.0,3.1,106.0,3.6,'11111222,11111222,11111222' 
LOOP,urn:ioos:station:wmo:lopl1:1,2014-09-03T00:16:00Z,28.8850,-90.0250,10.0,2.6,100.0,3.2,'11111222,11111222,11111222' 
LOOP,urn:ioos:station:wmo:lopl1:1,2014-09-03T00:31:00Z,28.8850,-90.0250,10.0,1.9,87.0,2.4,'11111222,11111222,11111222' 
LOOP,urn:ioos:station:wmo:lopl1:1,2014-09-03T00:46:00Z,28.8850,-90.0250,10.0,2.3,106.0,2.7,'11111222,11111222,11111222' 
LOOP,urn:ioos:station:wmo:lopl1:1,2014-09-03T01:01:00Z,28.8850,-90.0250,10.0,1.9,96.0,2.7,'11111222,11111222,11111222' 
LOOP,urn:ioos:station:wmo:lopl1:1,2014-09-03T01:16:00Z,28.8850,-90.0250,10.0,1.7,110.0,2.2,'11111222,11111222,11111222' 
LOOP,urn:ioos:station:wmo:lopl1:1,2014-09-03T01:31:00Z,28.8850,-90.0250,10.0,1.5,109.0,2.3,'11111222,11111222,11111222' 